This is the latest recevied weather packets stored in our database for station/object KB2SKP. If no packets are shown the sender has not sent any weather packets the latest 10 day(s).
| Time | Temp. | Humidity | Pressure | Rain* | Wind** | Luminosity | Snow |
|---|---|---|---|---|---|---|---|
| 1778099601 | 20° C | 82% | 1004.9 hPa | 0 mm | - | 75 W/m² | - |
| 1778099298 | 20° C | 81% | 1005 hPa | 0 mm | - | 66 W/m² | - |
| 1778098995 | 20° C | 82% | 1005.2 hPa | 0 mm | - | 52 W/m² | - |
| 1778098691 | 20° C | 82% | 1005.2 hPa | 0 mm | - | 60 W/m² | - |
| 1778098389 | 20° C | 82% | 1005.3 hPa | 0 mm | - | 56 W/m² | - |
| 1778098086 | 20° C | 82% | 1005.3 hPa | 0 mm | - | 72 W/m² | - |
| 1778097781 | 19.44° C | 83% | 1005.1 hPa | 0 mm | - | 82 W/m² | - |
| 1778097478 | 19.44° C | 83% | 1005.2 hPa | 0 mm | - | 64 W/m² | - |
| 1778097175 | 19.44° C | 83% | 1005.5 hPa | 0 mm | - | 56 W/m² | - |
| 1778096872 | 19.44° C | 83% | 1005.8 hPa | 0 mm | - | 40 W/m² | - |
| 1778096568 | 19.44° C | 83% | 1005.6 hPa | 0 mm | - | 43 W/m² | - |
| 1778096266 | 20° C | 82% | 1005.5 hPa | 0 mm | - | 60 W/m² | - |
| 1778095963 | 20° C | 82% | 1005.8 hPa | 0 mm | - | 56 W/m² | - |
| 1778095659 | 20° C | 82% | 1005.7 hPa | 0 mm | - | 75 W/m² | - |
| 1778095356 | 20° C | 82% | 1005.7 hPa | 0 mm | - | 84 W/m² | - |
| 1778095053 | 20° C | 83% | 1005.6 hPa | 0 mm | - | 72 W/m² | - |
| 1778094749 | 20° C | 83% | 1005.8 hPa | 0 mm | - | 83 W/m² | - |
| 1778094446 | 20° C | 83% | 1005.9 hPa | 0 mm | - | 67 W/m² | - |
| 1778094143 | 19.44° C | 82% | 1005.7 hPa | 0 mm | - | 102 W/m² | - |
| 1778093840 | 19.44° C | 84% | 1005.8 hPa | 0 mm | - | 110 W/m² | - |
| 1778093536 | 19.44° C | 83% | 1006.3 hPa | 0 mm | - | 95 W/m² | - |
| 1778093234 | 19.44° C | 82% | 1006.1 hPa | 0 mm | - | 81 W/m² | - |
| 1778092931 | 19.44° C | 84% | 1006.4 hPa | 0 mm | - | 88 W/m² | - |
| 1778092628 | 19.44° C | 83% | 1006.5 hPa | 0 mm | - | 96 W/m² | - |
| 1778092323 | 19.44° C | 82% | 1006.3 hPa | 0 mm | - | 105 W/m² | - |
* Rain latest hour (hover to see other rain measurements)
** Current wind speed in m/s (hover to see current wind gust speed)